Location: Juzet
(42.9779°N, 0.7597°E)
Time: 19:11:35
(UTC+00:00)

Intercosmos 25 Rocket - Pass Details

Date: 14 July 2020
Orbit: 434 x 2985 km, 82.6° (Epoch: 12 August)

Event Time Altitude Azimuth Distance (km) Brightness Sun altitude
Rises 03:48:57 0° 348° (NNW) 2,671 7.2 -7.1°
Reaches altitude 10° 03:50:44 10° 346° (NNW) 1,914 6.4 -6.9°
Maximum altitude 03:54:47 71° 263° (W) 806 4.0 -6.3°
Drops below altitude 10° 04:01:13 10° 181° (S) 3,007 6.7 -5.4°
Sets 04:04:37 0° 179° (S) 4,368 7.5 -4.9°
